AFL1545 UWPP-UUEE

Flight info

Callsign AFL1545
Flight time 1h 1m
Altitude 30000
Route ADSAT1L ADSAT L736 OLOPI OLOPI3F
Aircraft A320/M-SDE2E3FGHIJ1RWY/LB1U1

Departure

Time 2026-04-24 10:23
Airport Penza Airport (UWPP)

Arrival

Time 2026-04-24 11:24
Airport Sheremetyevo International Airport (UUEE)
Time Latitude Longitude Altitude Speed Heading
2026-04-24 10:00 53.11667 45.02420 596 ft 0 kts 270°
2026-04-24 10:01 53.11667 45.02421 596 ft 0 kts 270°
2026-04-24 10:10 53.11667 45.02422 598 ft 0 kts 270°
2026-04-24 10:17 53.11655 45.02359 595 ft 10 kts 214°
2026-04-24 10:18 53.11582 45.02360 595 ft 10 kts 143°
2026-04-24 10:18 53.11578 45.02470 595 ft 9 kts 89°
2026-04-24 10:18 53.11535 45.02570 595 ft 19 kts 136°
2026-04-24 10:18 53.11419 45.02735 595 ft 22 kts 139°
2026-04-24 10:19 53.11303 45.02908 595 ft 22 kts 139°
2026-04-24 10:19 53.11186 45.03077 595 ft 22 kts 139°
2026-04-24 10:19 53.11070 45.03248 595 ft 24 kts 137°
2026-04-24 10:19 53.10944 45.03429 595 ft 24 kts 137°
2026-04-24 10:20 53.10823 45.03612 595 ft 23 kts 131°
2026-04-24 10:20 53.10746 45.03846 596 ft 23 kts 117°
2026-04-24 10:20 53.10673 45.04088 596 ft 23 kts 117°
2026-04-24 10:20 53.10602 45.04333 596 ft 24 kts 116°
2026-04-24 10:21 53.10542 45.04537 596 ft 14 kts 124°
2026-04-24 10:21 53.10456 45.04538 597 ft 13 kts 206°
2026-04-24 10:21 53.10392 45.04457 601 ft 11 kts 250°
2026-04-24 10:21 53.10412 45.04350 602 ft 9 kts 297°
2026-04-24 10:22 53.10460 45.04187 602 ft 41 kts 296°
2026-04-24 10:22 53.10699 45.03368 602 ft 112 kts 297°
2026-04-24 10:22 53.11129 45.01913 617 ft 164 kts 290°
2026-04-24 10:22 53.11640 45.00208 1178 ft 164 kts 289°
2026-04-24 10:23 53.12143 44.98511 1857 ft 163 kts 289°
2026-04-24 10:23 53.12640 44.96823 2533 ft 162 kts 288°
2026-04-24 10:23 53.13139 44.95118 3004 ft 171 kts 288°
2026-04-24 10:23 53.13684 44.93218 3263 ft 193 kts 288°
2026-04-24 10:24 53.14301 44.91065 3499 ft 218 kts 289°
2026-04-24 10:24 53.14992 44.88657 3876 ft 243 kts 290°
2026-04-24 10:24 53.15763 44.86007 4346 ft 264 kts 291°
2026-04-24 10:24 53.16581 44.83232 5150 ft 271 kts 291°
2026-04-24 10:25 53.17394 44.80372 6041 ft 273 kts 287°
2026-04-24 10:25 53.17903 44.77344 6899 ft 273 kts 278°
2026-04-24 10:25 53.18316 44.74230 7789 ft 276 kts 278°
2026-04-24 10:25 53.18728 44.71079 8654 ft 280 kts 277°
2026-04-24 10:26 53.19144 44.67883 9520 ft 284 kts 277°
2026-04-24 10:26 53.19570 44.64551 9884 ft 306 kts 277°
2026-04-24 10:26 53.20026 44.60962 10257 ft 323 kts 278°
2026-04-24 10:26 53.20505 44.57259 10952 ft 329 kts 278°
2026-04-24 10:27 53.20994 44.53496 11740 ft 333 kts 278°
2026-04-24 10:27 53.21486 44.49712 12518 ft 336 kts 278°
2026-04-24 10:27 53.21975 44.45930 13256 ft 339 kts 278°
2026-04-24 10:27 53.22474 44.42063 13927 ft 343 kts 278°
2026-04-24 10:28 53.22974 44.38156 14585 ft 346 kts 278°
2026-04-24 10:28 53.23477 44.34213 15247 ft 349 kts 278°
2026-04-24 10:28 53.23984 44.30225 15906 ft 352 kts 278°
2026-04-24 10:28 53.24494 44.26200 16555 ft 356 kts 278°
2026-04-24 10:29 53.25008 44.22144 17220 ft 359 kts 278°
2026-04-24 10:29 53.25525 44.18043 17859 ft 363 kts 278°
2026-04-24 10:29 53.26044 44.13897 18438 ft 366 kts 278°
2026-04-24 10:29 53.26567 44.09711 18999 ft 369 kts 278°
2026-04-24 10:30 53.27093 44.05495 19565 ft 372 kts 278°
2026-04-24 10:30 53.27623 44.01242 20114 ft 375 kts 278°
2026-04-24 10:30 53.28156 43.96954 20672 ft 379 kts 278°
2026-04-24 10:30 53.28691 43.92619 21223 ft 382 kts 278°
2026-04-24 10:31 53.29225 43.88261 21767 ft 385 kts 278°
2026-04-24 10:31 53.29764 43.83862 22313 ft 388 kts 278°
2026-04-24 10:31 53.30307 43.79421 22842 ft 391 kts 278°
2026-04-24 10:31 53.30852 43.74953 23304 ft 394 kts 278°
2026-04-24 10:32 53.31399 43.70454 23734 ft 396 kts 278°
2026-04-24 10:32 53.31949 43.65923 24173 ft 398 kts 278°
2026-04-24 10:32 53.32500 43.61368 24605 ft 401 kts 278°
2026-04-24 10:32 53.33049 43.56791 25020 ft 403 kts 278°
2026-04-24 10:33 53.33599 43.52182 25421 ft 405 kts 278°
2026-04-24 10:33 53.34151 43.47547 25807 ft 407 kts 278°
2026-04-24 10:33 53.34707 43.42886 26196 ft 409 kts 278°
2026-04-24 10:33 53.35259 43.38255 26570 ft 412 kts 278°
2026-04-24 10:34 53.35818 43.33537 26939 ft 414 kts 278°
2026-04-24 10:34 53.36377 43.28800 27314 ft 416 kts 278°
2026-04-24 10:34 53.36756 43.25588 27562 ft 417 kts 278°
2026-04-24 10:34 53.37318 43.20805 27934 ft 419 kts 278°
2026-04-24 10:35 53.37878 43.15995 28308 ft 422 kts 278°
2026-04-24 10:35 53.38437 43.11165 28695 ft 424 kts 278°
2026-04-24 10:35 53.38999 43.06297 29055 ft 426 kts 278°
2026-04-24 10:35 53.39554 43.01471 29350 ft 428 kts 277°
2026-04-24 10:36 53.40114 42.96610 29405 ft 418 kts 277°
2026-04-24 10:36 53.40658 42.91906 29409 ft 406 kts 277°
2026-04-24 10:36 53.41184 42.87286 29412 ft 402 kts 277°
2026-04-24 10:37 53.42224 42.78098 29406 ft 400 kts 277°
2026-04-24 10:37 53.43251 42.68935 29411 ft 400 kts 277°
2026-04-24 10:38 53.44274 42.59746 29408 ft 400 kts 277°
2026-04-24 10:38 53.45283 42.50645 29410 ft 399 kts 277°
2026-04-24 10:39 53.46726 42.41606 29405 ft 402 kts 283°
2026-04-24 10:39 53.48318 42.32611 29409 ft 402 kts 283°
2026-04-24 10:40 53.49903 42.23621 29404 ft 401 kts 282°
2026-04-24 10:40 53.51478 42.14617 29401 ft 401 kts 282°
2026-04-24 10:41 53.53042 42.05604 29404 ft 401 kts 282°
2026-04-24 10:41 53.54602 41.96598 29407 ft 401 kts 282°
2026-04-24 10:42 53.56142 41.87641 29404 ft 401 kts 282°
2026-04-24 10:42 53.57688 41.78624 29415 ft 401 kts 282°
2026-04-24 10:43 53.59221 41.69608 29407 ft 400 kts 282°
2026-04-24 10:43 53.60748 41.60589 29408 ft 400 kts 282°
2026-04-24 10:44 53.62259 41.51641 29405 ft 399 kts 281°
2026-04-24 10:44 53.63781 41.42572 29407 ft 399 kts 281°
2026-04-24 10:45 53.65274 41.33644 29408 ft 398 kts 281°
2026-04-24 10:45 53.66764 41.24663 29412 ft 398 kts 281°
2026-04-24 10:46 53.68242 41.15678 29411 ft 397 kts 281°
2026-04-24 10:46 53.69710 41.06709 29418 ft 396 kts 281°
2026-04-24 10:47 53.71566 40.97926 29420 ft 400 kts 289°
2026-04-24 10:47 53.73808 40.89326 29419 ft 400 kts 289°
2026-04-24 10:48 53.76034 40.80712 29417 ft 399 kts 289°
2026-04-24 10:48 53.78236 40.72156 29415 ft 400 kts 289°
2026-04-24 10:49 53.80445 40.63536 29426 ft 400 kts 288°
2026-04-24 10:49 53.82649 40.54891 29431 ft 400 kts 288°
2026-04-24 10:50 53.84845 40.46243 29434 ft 400 kts 288°
2026-04-24 10:50 53.87031 40.37579 29445 ft 400 kts 288°
2026-04-24 10:51 53.89223 40.28900 29447 ft 400 kts 288°
2026-04-24 10:51 53.91419 40.20220 29452 ft 400 kts 288°
2026-04-24 10:52 53.93605 40.11532 29462 ft 400 kts 288°
2026-04-24 10:52 53.95787 40.02837 29457 ft 400 kts 288°
2026-04-24 10:53 53.97959 39.94144 29461 ft 400 kts 288°
2026-04-24 10:53 54.00122 39.85438 29466 ft 400 kts 288°
2026-04-24 10:54 54.02281 39.76722 29462 ft 400 kts 288°
2026-04-24 10:54 54.04433 39.68013 29470 ft 400 kts 288°
2026-04-24 10:55 54.06567 39.59342 29470 ft 400 kts 288°
2026-04-24 10:55 54.08698 39.50601 29477 ft 400 kts 287°
2026-04-24 10:56 54.10830 39.41845 29474 ft 399 kts 287°
2026-04-24 10:56 54.12952 39.33091 29486 ft 400 kts 287°
2026-04-24 10:57 54.15076 39.24316 29481 ft 400 kts 287°
2026-04-24 10:57 54.17177 39.15587 29486 ft 400 kts 287°
2026-04-24 10:58 54.19284 39.06785 29490 ft 403 kts 287°
2026-04-24 10:58 54.20357 39.02270 29512 ft 415 kts 287°
2026-04-24 10:58 54.21470 38.97659 29503 ft 426 kts 290°
2026-04-24 10:58 54.23047 38.93288 29503 ft 438 kts 304°
2026-04-24 10:59 54.25250 38.89628 29500 ft 448 kts 319°
2026-04-24 10:59 54.27970 38.86950 29502 ft 456 kts 334°
2026-04-24 10:59 54.30960 38.85050 29506 ft 458 kts 336°
2026-04-24 10:59 54.33950 38.83194 29222 ft 455 kts 336°
2026-04-24 11:00 54.36912 38.81354 28517 ft 451 kts 336°
2026-04-24 11:00 54.39819 38.79544 27854 ft 448 kts 336°
2026-04-24 11:00 54.42740 38.77722 27197 ft 445 kts 336°
2026-04-24 11:00 54.45641 38.75910 26565 ft 442 kts 336°
2026-04-24 11:01 54.48512 38.74108 25944 ft 438 kts 336°
2026-04-24 11:01 54.51360 38.72309 25352 ft 434 kts 335°
2026-04-24 11:01 54.54188 38.70517 24777 ft 431 kts 335°
2026-04-24 11:01 54.56994 38.68739 24212 ft 428 kts 335°
2026-04-24 11:02 54.59779 38.66978 23674 ft 425 kts 335°
2026-04-24 11:02 54.62543 38.65232 23137 ft 422 kts 335°
2026-04-24 11:02 54.65287 38.63497 22511 ft 419 kts 335°
2026-04-24 11:02 54.68020 38.61770 21889 ft 417 kts 335°
2026-04-24 11:03 54.70739 38.60046 21285 ft 415 kts 336°
2026-04-24 11:03 54.73442 38.58326 20695 ft 413 kts 336°
2026-04-24 11:03 54.76135 38.56605 20115 ft 411 kts 336°
2026-04-24 11:03 54.78812 38.54893 19560 ft 409 kts 336°
2026-04-24 11:04 54.81471 38.53191 19001 ft 407 kts 336°
2026-04-24 11:04 54.84123 38.51487 18474 ft 405 kts 337°
2026-04-24 11:04 54.86727 38.49817 17955 ft 403 kts 337°
2026-04-24 11:04 54.89355 38.48134 17374 ft 401 kts 337°
2026-04-24 11:05 54.91960 38.46461 16788 ft 398 kts 337°
2026-04-24 11:05 54.94551 38.44795 16219 ft 395 kts 338°
2026-04-24 11:05 54.97124 38.43138 15661 ft 392 kts 338°
2026-04-24 11:05 54.99673 38.41497 15114 ft 389 kts 338°
2026-04-24 11:06 55.02202 38.39864 14586 ft 386 kts 338°
2026-04-24 11:06 55.04714 38.38238 14077 ft 383 kts 338°
2026-04-24 11:06 55.07188 38.36633 13756 ft 375 kts 338°
2026-04-24 11:06 55.09584 38.35078 13428 ft 367 kts 338°
2026-04-24 11:07 55.14269 38.32031 12721 ft 352 kts 338°
2026-04-24 11:07 55.16543 38.30542 12396 ft 345 kts 338°
2026-04-24 11:07 55.18768 38.29084 12101 ft 337 kts 339°
2026-04-24 11:08 55.20937 38.27664 11820 ft 330 kts 339°
2026-04-24 11:08 55.23063 38.26276 11540 ft 322 kts 339°
2026-04-24 11:08 55.25142 38.24922 11275 ft 315 kts 339°
2026-04-24 11:08 55.27166 38.23601 11033 ft 307 kts 339°
2026-04-24 11:09 55.29149 38.22300 10795 ft 300 kts 340°
2026-04-24 11:09 55.31091 38.21022 10563 ft 297 kts 340°
2026-04-24 11:09 55.33018 38.19754 10337 ft 295 kts 340°
2026-04-24 11:09 55.34936 38.18492 10113 ft 293 kts 340°
2026-04-24 11:10 55.36839 38.17233 9888 ft 289 kts 340°
2026-04-24 11:10 55.38695 38.16002 9673 ft 281 kts 340°
2026-04-24 11:10 55.40515 38.14800 9463 ft 278 kts 341°
2026-04-24 11:10 55.42315 38.13614 9237 ft 276 kts 341°
2026-04-24 11:11 55.44105 38.12432 9035 ft 273 kts 341°
2026-04-24 11:11 55.45876 38.11262 8813 ft 272 kts 341°
2026-04-24 11:11 55.47621 38.10108 8594 ft 270 kts 341°
2026-04-24 11:11 55.49376 38.08946 8374 ft 269 kts 341°
2026-04-24 11:12 55.51122 38.07786 8154 ft 267 kts 341°
2026-04-24 11:12 55.52854 38.06637 7936 ft 266 kts 341°
2026-04-24 11:12 55.54583 38.05489 7733 ft 265 kts 341°
2026-04-24 11:12 55.56300 38.04345 7520 ft 263 kts 341°
2026-04-24 11:13 55.58009 38.03206 7309 ft 262 kts 341°
2026-04-24 11:13 55.59705 38.02075 7105 ft 260 kts 341°
2026-04-24 11:13 55.61400 38.00946 6900 ft 259 kts 341°
2026-04-24 11:13 55.63083 37.99823 6704 ft 258 kts 341°
2026-04-24 11:14 55.64761 37.98702 6500 ft 258 kts 341°
2026-04-24 11:14 55.66438 37.97581 6300 ft 257 kts 341°
2026-04-24 11:14 55.68103 37.96466 6102 ft 255 kts 341°
2026-04-24 11:14 55.69758 37.95356 5907 ft 254 kts 341°
2026-04-24 11:15 55.71410 37.94244 5691 ft 253 kts 341°
2026-04-24 11:15 55.73034 37.93152 5490 ft 252 kts 341°
2026-04-24 11:15 55.74672 37.92051 5275 ft 251 kts 341°
2026-04-24 11:15 55.76301 37.90952 5079 ft 250 kts 341°
2026-04-24 11:16 55.77927 37.89856 4891 ft 249 kts 341°
2026-04-24 11:16 55.79528 37.88778 4708 ft 247 kts 341°
2026-04-24 11:16 55.81142 37.87687 4527 ft 246 kts 341°
2026-04-24 11:16 55.82739 37.86607 4343 ft 245 kts 341°
2026-04-24 11:17 55.84327 37.85536 4154 ft 243 kts 341°
2026-04-24 11:17 55.85904 37.84470 3958 ft 242 kts 341°
2026-04-24 11:17 55.87470 37.83410 3775 ft 240 kts 341°
2026-04-24 11:17 55.89003 37.82372 3591 ft 238 kts 341°
2026-04-24 11:18 55.90535 37.81333 3403 ft 231 kts 341°
2026-04-24 11:18 55.92003 37.80337 3209 ft 221 kts 341°
2026-04-24 11:18 55.93414 37.79377 3038 ft 213 kts 341°
2026-04-24 11:18 55.94769 37.78452 2852 ft 205 kts 341°
2026-04-24 11:19 55.96071 37.77563 2665 ft 196 kts 341°
2026-04-24 11:19 55.97316 37.76712 2539 ft 187 kts 340°
2026-04-24 11:19 55.98488 37.75909 2490 ft 173 kts 340°
2026-04-24 11:19 55.99580 37.75152 2536 ft 166 kts 338°
2026-04-24 11:20 56.00519 37.73975 2503 ft 167 kts 317°
2026-04-24 11:20 56.01116 37.72301 2496 ft 172 kts 297°
2026-04-24 11:20 56.01312 37.70151 2498 ft 182 kts 272°
2026-04-24 11:20 56.01049 37.67930 2500 ft 187 kts 262°
2026-04-24 11:21 56.00715 37.65678 2499 ft 188 kts 262°
2026-04-24 11:21 56.00380 37.63414 2497 ft 188 kts 262°
2026-04-24 11:21 56.00046 37.61148 2501 ft 188 kts 262°
2026-04-24 11:21 55.99722 37.58964 2430 ft 172 kts 263°
2026-04-24 11:22 55.99435 37.57032 2269 ft 153 kts 263°
2026-04-24 11:22 55.99173 37.55256 2083 ft 144 kts 262°
2026-04-24 11:22 55.98924 37.53540 1912 ft 142 kts 263°
2026-04-24 11:22 55.98672 37.51839 1614 ft 141 kts 262°
2026-04-24 11:23 55.98419 37.50151 1315 ft 140 kts 261°
2026-04-24 11:23 55.98169 37.48488 1117 ft 138 kts 261°
2026-04-24 11:23 55.97927 37.46825 959 ft 138 kts 261°
2026-04-24 11:23 55.97685 37.45204 773 ft 137 kts 259°
2026-04-24 11:24 55.97449 37.43577 648 ft 127 kts 259°
2026-04-24 11:24 55.97259 37.42263 639 ft 86 kts 256°
2026-04-24 11:24 55.97148 37.41527 643 ft 30 kts 255°
2026-04-24 11:24 55.97183 37.41339 643 ft 17 kts 349°
2026-04-24 11:25 55.97286 37.41288 644 ft 15 kts 346°
2026-04-24 11:25 55.97391 37.41238 640 ft 16 kts 345°
2026-04-24 11:25 55.97494 37.41190 641 ft 12 kts 345°
2026-04-24 11:25 55.97541 37.41241 642 ft 9 kts 72°
2026-04-24 11:26 55.97564 37.41381 645 ft 17 kts 76°
2026-04-24 11:26 55.97593 37.41579 641 ft 15 kts 75°
2026-04-24 11:26 55.97621 37.41766 646 ft 16 kts 73°
2026-04-24 11:26 55.97653 37.41978 640 ft 19 kts 76°
2026-04-24 11:27 55.97689 37.42213 639 ft 21 kts 75°
2026-04-24 11:27 55.97743 37.42393 639 ft 14 kts 354°
2026-04-24 11:27 55.97833 37.42350 639 ft 14 kts 345°
2026-04-24 11:27 55.97935 37.42294 643 ft 16 kts 342°
2026-04-24 11:28 55.98038 37.42245 641 ft 13 kts 344°
2026-04-24 11:28 55.98070 37.42182 642 ft 7 kts 256°
2026-04-24 11:28 55.98059 37.42107 644 ft 6 kts 255°
2026-04-24 11:28 55.98053 37.42066 642 ft 0 kts 255°
2026-04-24 11:29 55.98052 37.42065 643 ft 0 kts 255°